Time,TemperatureF,DewpointF,PressureIn,WindDirection,WindDirectionDegrees,WindSpeedMPH,WindSpeedGustMPH,Humidity,HourlyPrecipIn,Conditions,Clouds,dailyrainin,SoftwareType,DateUTC
2013-12-11 00:22:00,28.0,-99.9,30.05,NW,319,14.0,-999.0,-999,-99.99,,,-99.99,,2013-12-11 05:22:00,
2013-12-11 00:30:00,27.0,-99.9,30.08,NW,315,11.0,-999.0,-999,-99.99,,,-99.99,,2013-12-11 05:30:00,
2013-12-11 00:33:00,28.0,-99.9,30.05,NW,319,14.0,-999.0,-999,-99.99,,,-99.99,,2013-12-11 05:33:00,
2013-12-11 00:43:00,28.0,-99.9,30.05,NW,319,14.0,-999.0,-999,-99.99,,,-99.99,,2013-12-11 05:43:00,
2013-12-11 01:13:00,27.0,-99.9,30.08,NW,315,11.0,-999.0,-999,-99.99,,,-99.99,,2013-12-11 06:13:00,
2013-12-11 01:22:00,27.0,-99.9,30.08,NW,315,11.0,-999.0,-999,-99.99,,,-99.99,,2013-12-11 06:22:00,
2013-12-11 01:30:00,26.0,-99.9,30.10,WNW,290,9.0,-999.0,-999,-99.99,,,-99.99,,2013-12-11 06:30:00,
2013-12-11 02:11:00,26.0,-99.9,30.10,WNW,290,9.0,-999.0,-999,-99.99,,,-99.99,,2013-12-11 07:11:00,
2013-12-11 02:22:00,26.0,-99.9,30.10,WNW,290,9.0,-999.0,-999,-99.99,,,-99.99,,2013-12-11 07:22:00,
2013-12-11 02:30:00,25.0,-99.9,30.13,West,267,1.0,-999.0,-999,-99.99,,,-99.99,,2013-12-11 07:30:00,
2013-12-11 02:52:00,25.0,-99.9,30.13,West,267,1.0,-999.0,-999,-99.99,,,-99.99,,2013-12-11 07:52:00,
2013-12-11 03:02:00,25.0,-99.9,30.13,West,267,1.0,-999.0,-999,-99.99,,,-99.99,,2013-12-11 08:02:00,
2013-12-11 03:11:00,25.0,-99.9,30.13,West,267,1.0,-999.0,-999,-99.99,,,-99.99,,2013-12-11 08:11:00,
2013-12-11 03:22:00,25.0,-99.9,30.13,West,267,1.0,-999.0,-999,-99.99,,,-99.99,,2013-12-11 08:22:00,
2013-12-11 03:30:00,26.0,-99.9,30.15,West,264,5.0,-999.0,-999,-99.99,,,-99.99,,2013-12-11 08:30:00,
2013-12-11 04:12:00,26.0,-99.9,30.15,West,264,5.0,-999.0,-999,-99.99,,,-99.99,,2013-12-11 09:12:00,
2013-12-11 04:22:00,26.0,-99.9,30.15,West,264,5.0,-999.0,-999,-99.99,,,-99.99,,2013-12-11 09:22:00,
2013-12-11 04:30:00,27.0,-99.9,30.18,West,279,11.0,-999.0,-999,-99.99,,,-99.99,,2013-12-11 09:30:00,
2013-12-11 05:13:00,27.0,-99.9,30.18,West,279,11.0,-999.0,-999,-99.99,,,-99.99,,2013-12-11 10:13:00,
2013-12-11 05:23:00,27.0,-99.9,30.18,West,279,11.0,-999.0,-999,-99.99,,,-99.99,,2013-12-11 10:23:00,
2013-12-11 06:22:00,26.0,-99.9,30.21,WNW,288,16.0,-999.0,-999,-99.99,,,-99.99,,2013-12-11 11:22:00,
2013-12-11 06:30:00,26.0,-99.9,30.23,West,275,7.0,-999.0,-999,-99.99,,,-99.99,,2013-12-11 11:30:00,
2013-12-11 06:33:00,26.0,-99.9,30.21,WNW,288,16.0,-999.0,-999,-99.99,,,-99.99,,2013-12-11 11:33:00,
2013-12-11 06:42:00,26.0,-99.9,30.21,WNW,288,16.0,-999.0,-999,-99.99,,,-99.99,,2013-12-11 11:42:00,
2013-12-11 07:11:00,26.0,-99.9,30.23,West,275,7.0,-999.0,-999,-99.99,,,-99.99,,2013-12-11 12:11:00,
2013-12-11 07:22:00,26.0,-99.9,30.23,West,275,7.0,-999.0,-999,-99.99,,,-99.99,,2013-12-11 12:22:00,
2013-12-11 07:30:00,26.0,-99.9,30.26,WNW,285,8.0,-999.0,-999,-99.99,,,-99.99,,2013-12-11 12:30:00,
2013-12-11 07:52:00,26.0,-99.9,30.26,WNW,285,8.0,-999.0,-999,-99.99,,,-99.99,,2013-12-11 12:52:00,
2013-12-11 08:02:00,26.0,-99.9,30.26,WNW,285,8.0,-999.0,-999,-99.99,,,-99.99,,2013-12-11 13:02:00,
2013-12-11 08:12:00,26.0,-99.9,30.26,WNW,285,8.0,-999.0,-999,-99.99,,,-99.99,,2013-12-11 13:12:00,
2013-12-11 08:22:00,26.0,-99.9,30.26,WNW,285,8.0,-999.0,-999,-99.99,,,-99.99,,2013-12-11 13:22:00,
2013-12-11 08:30:00,27.0,-99.9,30.28,WNW,292,10.0,-999.0,-999,-99.99,,,-99.99,,2013-12-11 13:30:00,
2013-12-11 09:11:00,27.0,-99.9,30.28,WNW,292,10.0,-999.0,-999,-99.99,,,-99.99,,2013-12-11 14:11:00,
2013-12-11 09:22:00,27.0,-99.9,30.28,WNW,292,10.0,-999.0,-999,-99.99,,,-99.99,,2013-12-11 14:22:00,
2013-12-11 09:30:00,29.0,-99.9,30.29,West,264,7.0,-999.0,-999,-99.99,,,-99.99,,2013-12-11 14:30:00,
2013-12-11 10:11:00,29.0,-99.9,30.29,West,264,7.0,-999.0,-999,-99.99,,,-99.99,,2013-12-11 15:11:00,
2013-12-11 10:22:00,29.0,-99.9,30.29,West,264,7.0,-999.0,-999,-99.99,,,-99.99,,2013-12-11 15:22:00,
2013-12-11 10:30:00,30.0,-99.9,30.29,SW,235,5.0,-999.0,-999,-99.99,,,-99.99,,2013-12-11 15:30:00,
2013-12-11 11:13:00,30.0,-99.9,30.29,SW,235,5.0,-999.0,-999,-99.99,,,-99.99,,2013-12-11 16:13:00,
2013-12-11 11:23:00,30.0,-99.9,30.29,SW,235,5.0,-999.0,-999,-99.99,,,-99.99,,2013-12-11 16:23:00,
2013-12-11 12:22:00,32.0,-99.9,30.23,WNW,286,10.0,-999.0,-999,-99.99,,,-99.99,,2013-12-11 17:22:00,
2013-12-11 12:30:00,33.0,-99.9,30.21,WNW,303,5.0,-999.0,-999,-99.99,,,-99.99,,2013-12-11 17:30:00,
2013-12-11 12:33:00,32.0,-99.9,30.23,WNW,286,10.0,-999.0,-999,-99.99,,,-99.99,,2013-12-11 17:33:00,
2013-12-11 12:43:00,32.0,-99.9,30.23,WNW,286,10.0,-999.0,-999,-99.99,,,-99.99,,2013-12-11 17:43:00,
2013-12-11 13:12:00,33.0,-99.9,30.21,WNW,303,5.0,-999.0,-999,-99.99,,,-99.99,,2013-12-11 18:12:00,
2013-12-11 13:22:00,33.0,-99.9,30.21,WNW,303,5.0,-999.0,-999,-99.99,,,-99.99,,2013-12-11 18:22:00,
2013-12-11 13:30:00,33.0,-99.9,30.20,West,265,5.0,-999.0,-999,-99.99,,,-99.99,,2013-12-11 18:30:00,
2013-12-11 14:11:00,33.0,-99.9,30.20,West,265,5.0,-999.0,-999,-99.99,,,-99.99,,2013-12-11 19:11:00,
2013-12-11 14:22:00,33.0,-99.9,30.20,West,265,5.0,-999.0,-999,-99.99,,,-99.99,,2013-12-11 19:22:00,
2013-12-11 14:30:00,32.0,-99.9,30.20,WNW,286,12.0,-999.0,-999,-99.99,,,-99.99,,2013-12-11 19:30:00,
2013-12-11 15:12:00,32.0,-99.9,30.20,WNW,286,12.0,-999.0,-999,-99.99,,,-99.99,,2013-12-11 20:12:00,
2013-12-11 15:22:00,32.0,-99.9,30.20,WNW,286,12.0,-999.0,-999,-99.99,,,-99.99,,2013-12-11 20:22:00,
2013-12-11 15:30:00,32.0,-99.9,30.20,West,277,13.0,-999.0,-999,-99.99,,,-99.99,,2013-12-11 20:30:00,
2013-12-11 16:11:00,32.0,-99.9,30.20,West,277,13.0,-999.0,-999,-99.99,,,-99.99,,2013-12-11 21:11:00,
2013-12-11 16:22:00,32.0,-99.9,30.20,West,277,13.0,-999.0,-999,-99.99,,,-99.99,,2013-12-11 21:22:00,
2013-12-11 16:30:00,30.0,-99.9,30.20,SW,219,5.0,-999.0,-999,-99.99,,,-99.99,,2013-12-11 21:30:00,
2013-12-11 17:13:00,30.0,-99.9,30.20,SW,219,5.0,-999.0,-999,-99.99,,,-99.99,,2013-12-11 22:13:00,
2013-12-11 17:23:00,30.0,-99.9,30.20,SW,219,5.0,-999.0,-999,-99.99,,,-99.99,,2013-12-11 22:23:00,
2013-12-11 17:53:00,30.0,-99.9,30.21,NW,308,7.0,-999.0,-999,-99.99,,,-99.99,,2013-12-11 22:53:00,
2013-12-11 18:02:00,30.0,-99.9,30.21,NW,308,7.0,-999.0,-999,-99.99,,,-99.99,,2013-12-11 23:02:00,
2013-12-11 18:22:00,30.0,-99.9,30.21,WNW,297,11.0,-999.0,-999,-99.99,,,-99.99,,2013-12-11 23:22:00,
2013-12-11 18:30:00,31.0,-99.9,30.21,West,281,14.0,-999.0,-999,-99.99,,,-99.99,,2013-12-11 23:30:00,
2013-12-11 18:33:00,30.0,-99.9,30.21,WNW,297,11.0,-999.0,-999,-99.99,,,-99.99,,2013-12-11 23:33:00,
2013-12-11 18:43:00,30.0,-99.9,30.21,WNW,297,11.0,-999.0,-999,-99.99,,,-99.99,,2013-12-11 23:43:00,
2013-12-11 19:11:00,31.0,-99.9,30.21,West,281,14.0,-999.0,-999,-99.99,,,-99.99,,2013-12-12 00:11:00,
2013-12-11 19:22:00,31.0,-99.9,30.21,West,281,14.0,-999.0,-999,-99.99,,,-99.99,,2013-12-12 00:22:00,
2013-12-11 19:30:00,30.0,-99.9,30.21,West,280,8.0,-999.0,-999,-99.99,,,-99.99,,2013-12-12 00:30:00,
2013-12-11 20:11:00,30.0,-99.9,30.21,West,280,8.0,-999.0,-999,-99.99,,,-99.99,,2013-12-12 01:11:00,
2013-12-11 20:22:00,30.0,-99.9,30.21,West,280,8.0,-999.0,-999,-99.99,,,-99.99,,2013-12-12 01:22:00,
2013-12-11 20:30:00,30.0,-99.9,30.20,WNW,287,5.0,-999.0,-999,-99.99,,,-99.99,,2013-12-12 01:30:00,
2013-12-11 21:12:00,30.0,-99.9,30.20,WNW,287,5.0,-999.0,-999,-99.99,,,-99.99,,2013-12-12 02:12:00,
2013-12-11 21:22:00,30.0,-99.9,30.20,WNW,287,5.0,-999.0,-999,-99.99,,,-99.99,,2013-12-12 02:22:00,
2013-12-11 21:30:00,29.0,-99.9,30.21,WNW,296,9.0,-999.0,-999,-99.99,,,-99.99,,2013-12-12 02:30:00,
2013-12-11 22:11:00,29.0,-99.9,30.21,WNW,296,9.0,-999.0,-999,-99.99,,,-99.99,,2013-12-12 03:11:00,
2013-12-11 22:22:00,29.0,-99.9,30.21,WNW,296,9.0,-999.0,-999,-99.99,,,-99.99,,2013-12-12 03:22:00,
2013-12-11 22:30:00,29.0,-99.9,30.20,West,278,10.0,-999.0,-999,-99.99,,,-99.99,,2013-12-12 03:30:00,
2013-12-11 23:13:00,29.0,-99.9,30.20,West,278,10.0,-999.0,-999,-99.99,,,-99.99,,2013-12-12 04:13:00,
2013-12-11 23:23:00,29.0,-99.9,30.20,West,278,10.0,-999.0,-999,-99.99,,,-99.99,,2013-12-12 04:23:00,
2013-12-11 23:30:00,30.0,-99.9,30.19,WNW,282,8.0,-999.0,-999,-99.99,,,-99.99,,2013-12-12 04:30:00,